2008/2009    α  (2000) δ      △      r    Daily motion  Elong. Phase    m1   天文薄明開始時
 29h JST    h  m       。  ,        AU      AU      ,     。     。      。      等     h。    A 。 
Dec. 28   17 30.10  -19 54.8    0.442   0.567   104.8/296    14.8  153.8    9.3    -4.2  291.6
     29   17 23.45  -19 08.6    0.445   0.575   100.5/297    17.5  149.1    9.3    -1.6  292.5
     30   17 17.15  -18 23.0    0.449   0.583    95.6/298    20.1  144.5    9.4    +0.8  293.4
     31   17 11.22  -17 38.4    0.454   0.591    90.4/298    22.7  140.1    9.5    +3.2  294.3
Jan.  1   17 05.68  -16 55.2    0.459   0.600    84.9/299    25.1  135.9    9.6    +5.4  295.3
      2   17 00.53  -16 13.5    0.465   0.610    79.5/300    27.5  131.9    9.7    +7.6  296.2
      3   16 55.77  -15 33.6    0.472   0.620    74.0/301    29.8  128.0    9.8    +9.6  297.1
      4   16 51.38  -14 55.5    0.478   0.631    68.7/302    32.0  124.3    9.9   +11.6  298.0
      5   16 47.36  -14 19.2    0.486   0.642    63.6/303    34.1  120.8   10.0   +13.5  298.9
      6   16 43.68  -13 44.9    0.493   0.653    58.8/303    36.1  117.4   10.1   +15.2  299.8
      7   16 40.32  -13 12.4    0.501   0.665    54.2/304    38.1  114.2   10.2   +16.9  300.7
      8   16 37.26  -12 41.8    0.509   0.677    49.9/305    39.9  111.2   10.3   +18.5  301.6
      9   16 34.48  -12 12.8    0.518   0.689    45.9/306    41.7  108.3   10.5   +20.0  302.4
     10   16 31.97  -11 45.6    0.526   0.702    42.2/307    43.4  105.6   10.6   +21.4  303.3
     11   16 29.69  -11 19.9    0.534   0.715    38.8/309    45.1  103.0   10.7   +22.8  304.2
     12   16 27.63  -10 55.6    0.542   0.728    35.7/310    46.7  100.5   10.8   +24.1  305.0
     13   16 25.76  -10 32.8    0.550   0.741    32.9/311    48.2   98.1   10.9   +25.3  305.9
     14   16 24.08  -10 11.1    0.559   0.754    30.4/312    49.7   95.9   11.0   +26.5  306.8
     15   16 22.56  -09 50.7    0.567   0.768    28.1/314    51.2   93.8   11.1   +27.6  307.6
     16   16 21.19  -09 31.2    0.574   0.781    26.1/315    52.6   91.7   11.2   +28.7  308.5
     17   16 19.94  -09 12.8    0.582   0.795    24.2/316    53.9   89.8   11.3   +29.7  309.3
     18   16 18.82  -08 55.2    0.590   0.809    22.6/318    55.3   87.9   11.4   +30.7  310.2
     19   16 17.80  -08 38.5    0.597   0.823    21.2/319    56.6   86.1   11.5   +31.7  311.1
     20   16 16.86  -08 22.4    0.605   0.837    19.9/321    57.9   84.4   11.6   +32.6  311.9
     21   16 16.02  -08 07.1    0.612   0.852    18.8/322    59.1   82.8   11.7   +33.5  312.8
     22   16 15.24  -07 52.3    0.619   0.866    17.8/323    60.4   81.2   11.8   +34.3  313.7
     23   16 14.52  -07 38.0    0.625   0.880    17.0/324    61.6   79.7   11.9   +35.1  314.5
     24   16 13.86  -07 24.2    0.632   0.894    16.2/325    62.8   78.3   12.0   +35.9  315.4
     25   16 13.24  -07 10.8    0.638   0.909    15.6/326    64.0   76.9   12.1   +36.7  316.3
     26   16 12.66  -06 57.8    0.644   0.923    15.1/327    65.2   75.5   12.2   +37.5  317.2
     27   16 12.11  -06 45.1    0.650   0.938    14.7/328    66.4   74.2   12.3   +38.2  318.1
     28   16 11.58  -06 32.7    0.656   0.952    14.3/328    67.5   72.9   12.4   +38.9  319.0
     29   16 11.07  -06 20.6    0.661   0.967    14.0/328    68.7   71.7   12.5   +39.6  320.0
     30   16 10.58  -06 08.7    0.667   0.981    13.8/328    69.8   70.5   12.5   +40.3  320.9
     31   16 10.10  -05 57.0    0.672   0.995    13.6/328    71.0   69.4   12.6   +40.9  321.9
Feb.  1   16 09.61  -05 45.4    0.677   1.010    13.5/328    72.1   68.2   12.7   +41.5  322.8
                    m1 = 13.5 + 5 log △ + 10.0 log r
NAKANO
         **** Don't distribute anyone except personal use only ****
                (C) Copyright 2008 OAA/ComputingSection
write mail from CFAD0::NAKANO on 2008-12-13 07:06:24(JST).
 
   P/2003 K2 (Christensen) = SWAN's Comet in April

Epoch 2003 Mar. 22.0 TT = JDT 2452720.5  

T 2003 Apr. 7.85896 TT                                  Nakano

q   0.5494884            (2000.0)            P               Q

n   0.17076462     Peri.  345.57981     +0.17877602     -0.96808215

a   3.2176399      Node    93.89561     +0.91924533     +0.10069932

e   0.8292262      Incl.   10.14069     +0.35075227     +0.22951382

P   5.77 (+/- 2.39 day)

From 226 observations 2003 May 26-June 29, mean residual 0".86.


NAKANO

         **** Don't distribute anyone except personal use only ****

                (C) Copyright 2003 OAA/ComputingSection

write mail from CFAD0::NAKANO on 2003-10-19 02:58:01(JST).

 

    P/2003 K2 (Christensen)                                               

T 2003 Apr. 7.85933 TT                                  Nakano

q   0.5494920            (2000.0)            P               Q

n   0.17071767     Peri.  345.58164     +0.17876890     -0.96808348

a   3.2182299      Node    93.89422     +0.91924454     +0.10069159

e   0.8292565      Incl.   10.14067     +0.35075798     +0.22951161

P   5.77 (+/- 2.39 day)

From 226 observations 2003 May 26-June 29.



NAKANO

         **** Don't distribute anyone except personal use only ****

                (C) Copyright 2003 OAA/ComputingSection

write mail from CFAD0::NAKANO on 2003-08-14 04:29:34(JST).

 



April positions were measured by M. Suzuki, Utsunomiya.



    CK03K020  S2003 04 05.00000 02 13.00    +12 00.0                         249

    CK03K020  S2003 04 08.00000 02 32.00    +14 00.0                         249

    CK03K020  S2003 04 12.00000 02 56.00    +16 00.0                         249

    CK03K020  S2003 04 15.00000 03 15.00    +19 00.0                         249

    CK03K020  S2003 04 17.00000 03 31.00    +21 00.0                         249



    P/2003 K2 (Christensen) = SWAN's Comet in April

T 2003 Apr. 7.89868 TT                                  Nakano

q   0.5507714            (2000.0)            P               Q

n   0.16680655     Peri.  345.80344     +0.17623281     -0.96853880

a   3.2683407      Node    93.82347     +0.91943208     +0.09821545

e   0.8314829      Incl.   10.14289     +0.35154891     +0.22866202

P   5.91 (+/- 8.32 day)

From 187 observations 2003 May 26-June 16.



NAKANO

         **** Don't distribute anyone except personal use only ****

                (C) Copyright 2003 OAA/ComputingSection

write mail from CFAD0::NAKANO on 2003-06-18 05:56:37(JST).

 



戻ります。